| time (UTC) | temp F | wind direction | speed MPH | gust MPH | rain 1hr in | rain 24hr in | rain mn in | humidity % | barometer mb |
| 20260904112119 | 61 | 342 | 0.0 | 1.0 | 0.00 | 0.00 | 0.00 | 46 | 1018.7 |
| 20260904111613 | 61 | 342 | 0.0 | 0.0 | 0.00 | 0.00 | 0.00 | 46 | 1018.6 |
| 20260904111528 | 61 | 336 | 0.0 | 0.0 | 0.00 | 0.00 | 0.00 | 45 | 1019.1 |
| 20260904111108 | 61 | 342 | 0.0 | 1.0 | 0.00 | 0.00 | 0.00 | 43 | 1018.6 |
| 20260904110602 | 61 | 342 | 0.0 | 2.0 | 0.00 | 0.00 | 0.00 | 45 | 1018.5 |
| 20260904110055 | 59 | 334 | 0.0 | 2.0 | 0.00 | 0.00 | 0.00 | 45 | 1018.5 |
| 20260904110031 | 59 | 333 | 0.0 | 2.0 | 0.00 | 0.00 | 0.00 | 46 | 1019.0 |
| 20260904105549 | 57 | 321 | 0.0 | 2.0 | 0.00 | 0.00 | 0.00 | 48 | 1018.4 |
| 20260904105044 | 56 | 328 | 0.0 | 1.0 | 0.00 | 0.00 | 0.00 | 53 | 1018.4 |
| 20260904104537 | 56 | 359 | 0.0 | 1.0 | 0.00 | 0.00 | 0.00 | 57 | 1018.2 |
| 20260904104533 | 55 | 352 | 0.0 | 1.0 | 0.00 | 0.00 | 0.00 | 58 | 1018.9 |
| 20260904103525 | 56 | 330 | 0.0 | 1.0 | 0.00 | 0.00 | 0.00 | 60 | 1018.1 |
| 20260904103026 | 56 | 321 | 0.0 | 1.0 | 0.00 | 0.00 | 0.00 | 64 | 1018.2 |
| 20260904103022 | 55 | 316 | 0.0 | 1.0 | 0.00 | 0.00 | 0.00 | 63 | 1018.7 |
| 20260904102522 | 56 | 322 | 0.0 | 0.0 | 0.00 | 0.00 | 0.00 | 66 | 1018.2 |
| 20260904101527 | 57 | 317 | 0.0 | 0.0 | 0.00 | 0.00 | 0.00 | 63 | 1018.4 |
| 20260904101524 | 57 | 322 | 0.0 | 0.0 | 0.00 | 0.00 | 0.00 | 64 | 1018.0 |
| 20260904101019 | 58 | 322 | 0.0 | 1.0 | 0.00 | 0.00 | 0.00 | 62 | 1018.0 |
| 20260904100517 | 58 | 322 | 0.0 | 1.0 | 0.00 | 0.00 | 0.00 | 62 | 1018.1 |
| 20260904100030 | 57 | 325 | 0.0 | 3.0 | 0.00 | 0.00 | 0.00 | 62 | 1018.5 |
| 20260904100016 | 58 | 330 | 0.0 | 1.0 | 0.00 | 0.00 | 0.00 | 62 | 1018.1 |
| 20260904095515 | 58 | 323 | 1.0 | 3.0 | 0.00 | 0.00 | 0.00 | 63 | 1018.0 |
| 20260904094533 | 57 | 319 | 1.0 | 3.0 | 0.00 | 0.00 | 0.00 | 66 | 1018.4 |
| 20260904094008 | 56 | 322 | 0.0 | 2.0 | 0.00 | 0.00 | 0.00 | 68 | 1018.0 |
| 20260904093506 | 56 | 335 | 0.0 | 2.0 | 0.00 | 0.00 | 0.00 | 69 | 1018.0 |
| 20260904093036 | 55 | 5 | 0.0 | 0.0 | 0.00 | 0.00 | 0.00 | 69 | 1018.3 |
| 20260904093003 | 55 | 1 | 0.0 | 0.0 | 0.00 | 0.00 | 0.00 | 70 | 1017.9 |
| 20260904092505 | 55 | 1 | 0.0 | 0.0 | 0.00 | 0.00 | 0.00 | 70 | 1018.0 |
| 20260904092006 | 55 | 1 | 0.0 | 0.0 | 0.00 | 0.00 | 0.00 | 69 | 1017.9 |
| 20260904091524 | 55 | 5 | 0.0 | 1.0 | 0.00 | 0.00 | 0.00 | 68 | 1018.2 |
| 20260904091504 | 56 | 1 | 0.0 | 0.0 | 0.00 | 0.00 | 0.00 | 69 | 1017.7 |
| 20260904091004 | 56 | 1 | 0.0 | 1.0 | 0.00 | 0.00 | 0.00 | 68 | 1017.7 |
| 20260904090504 | 56 | 1 | 0.0 | 1.0 | 0.00 | 0.00 | 0.00 | 68 | 1017.7 |
| 20260904090005 | 56 | 353 | 0.0 | 1.0 | 0.00 | 0.00 | 0.00 | 69 | 1017.7 |
| 20260904085503 | 55 | 321 | 0.0 | 0.0 | 0.00 | 0.00 | 0.00 | 70 | 1017.7 |
| 20260904085001 | 55 | 345 | 0.0 | 0.0 | 0.00 | 0.00 | 0.00 | 70 | 1017.9 |
| 20260904084508 | 55 | 338 | 0.0 | 0.0 | 0.00 | 0.00 | 0.00 | 69 | 1018.3 |
| 20260904084502 | 55 | 345 | 0.0 | 0.0 | 0.00 | 0.00 | 0.00 | 69 | 1017.9 |
| 20260904083957 | 56 | 345 | 0.0 | 0.0 | 0.00 | 0.00 | 0.00 | 69 | 1017.9 |
| 20260904083004 | 55 | 322 | 0.0 | 0.0 | 0.00 | 0.00 | 0.00 | 68 | 1018.5 |
| 20260904082457 | 56 | 328 | 0.0 | 0.0 | 0.00 | 0.00 | 0.00 | 69 | 1018.1 |
| 20260904081957 | 56 | 328 | 0.0 | 0.0 | 0.00 | 0.00 | 0.00 | 68 | 1018.1 |
| 20260904081514 | 56 | 322 | 0.0 | 0.0 | 0.00 | 0.00 | 0.00 | 67 | 1018.5 |
| 20260904081455 | 56 | 328 | 0.0 | 0.0 | 0.00 | 0.00 | 0.00 | 67 | 1018.0 |
| 20260904080958 | 57 | 328 | 0.0 | 0.0 | 0.00 | 0.00 | 0.00 | 66 | 1018.0 |
| 20260904080457 | 57 | 328 | 0.0 | 1.0 | 0.00 | 0.00 | 0.00 | 65 | 1018.0 |
| 20260904080008 | 57 | 324 | 0.0 | 1.0 | 0.00 | 0.00 | 0.00 | 64 | 1018.5 |
| 20260904075956 | 58 | 330 | 0.0 | 1.0 | 0.00 | 0.00 | 0.00 | 65 | 1018.1 |
| 20260904074509 | 58 | 335 | 0.0 | 0.0 | 0.00 | 0.00 | 0.00 | 63 | 1018.6 |
| 20260904074455 | 58 | 341 | 0.0 | 0.0 | 0.00 | 0.00 | 0.00 | 63 | 1018.2 |
| 20260904073959 | 59 | 341 | 0.0 | 0.0 | 0.00 | 0.00 | 0.00 | 63 | 1018.1 |
| 20260904073456 | 59 | 341 | 0.0 | 0.0 | 0.00 | 0.00 | 0.00 | 62 | 1018.1 |
| 20260904073009 | 60 | 335 | 0.0 | 1.0 | 0.00 | 0.00 | 0.00 | 60 | 1018.7 |
| 20260904072957 | 60 | 341 | 0.0 | 0.0 | 0.00 | 0.00 | 0.00 | 61 | 1018.2 |
| 20260904072455 | 61 | 341 | 0.0 | 2.0 | 0.00 | 0.00 | 0.00 | 59 | 1018.4 |
| 20260904071957 | 61 | 338 | 0.0 | 2.0 | 0.00 | 0.00 | 0.00 | 58 | 1018.4 |
| 20260904071510 | 60 | 329 | 0.0 | 2.0 | 0.00 | 0.00 | 0.00 | 58 | 1018.6 |
| 20260904070957 | 61 | 325 | 0.0 | 2.0 | 0.00 | 0.00 | 0.00 | 60 | 1018.4 |
| 20260904070457 | 61 | 333 | 0.0 | 2.0 | 0.00 | 0.00 | 0.00 | 59 | 1018.4 |
| 20260904070008 | 60 | 311 | 0.0 | 1.0 | 0.00 | 0.00 | 0.00 | 59 | 1018.8 |
| 20260904065958 | 61 | 316 | 0.0 | 1.0 | 0.00 | 0.00 | 0.00 | 59 | 1018.5 |
| 20260904064511 | 59 | 315 | 0.0 | 0.0 | 0.00 | 0.00 | 0.00 | 61 | 1018.9 |
| 20260904064458 | 59 | 320 | 0.0 | 0.0 | 0.00 | 0.00 | 0.00 | 62 | 1018.6 |
| 20260904063958 | 60 | 320 | 0.0 | 0.0 | 0.00 | 0.00 | 0.00 | 62 | 1018.7 |
| 20260904063013 | 60 | 315 | 0.0 | 0.0 | 0.00 | 0.00 | 0.00 | 60 | 1019.1 |
| 20260904062457 | 61 | 320 | 0.0 | 0.0 | 0.00 | 0.00 | 0.00 | 59 | 1018.6 |
| 20260904061956 | 61 | 320 | 0.0 | 0.0 | 0.00 | 0.00 | 0.00 | 58 | 1018.6 |
| 20260904061519 | 61 | 315 | 0.0 | 0.0 | 0.00 | 0.00 | 0.00 | 57 | 1019.1 |
| 20260904061455 | 61 | 320 | 0.0 | 0.0 | 0.00 | 0.00 | 0.00 | 57 | 1018.7 |
| 20260904060956 | 62 | 320 | 0.0 | 0.0 | 0.00 | 0.00 | 0.00 | 57 | 1018.6 |
| 20260904060455 | 62 | 320 | 0.0 | 0.0 | 0.00 | 0.00 | 0.00 | 56 | 1018.7 |
| 20260904060012 | 62 | 315 | 0.0 | 0.0 | 0.00 | 0.00 | 0.00 | 55 | 1019.2 |
| 20260904055956 | 63 | 320 | 0.0 | 0.0 | 0.00 | 0.00 | 0.00 | 55 | 1018.7 |
| 20260904055449 | 63 | 320 | 0.0 | 0.0 | 0.00 | 0.00 | 0.00 | 54 | 1018.7 |
| 20260904054944 | 64 | 320 | 0.0 | 0.0 | 0.00 | 0.00 | 0.00 | 53 | 1018.7 |
| 20260904054514 | 63 | 325 | 0.0 | 0.0 | 0.00 | 0.00 | 0.00 | 52 | 1019.3 |
| 20260904054438 | 64 | 331 | 0.0 | 0.0 | 0.00 | 0.00 | 0.00 | 53 | 1018.7 |
| 20260904053426 | 65 | 331 | 0.0 | 0.0 | 0.00 | 0.00 | 0.00 | 51 | 1018.7 |
| 20260904053010 | 65 | 322 | 0.0 | 0.0 | 0.00 | 0.00 | 0.00 | 52 | 1019.3 |
| 20260904052921 | 65 | 295 | 0.0 | 0.0 | 0.00 | 0.00 | 0.00 | 49 | 1018.8 |
| 20260904052414 | 66 | 288 | 0.0 | 0.0 | 0.00 | 0.00 | 0.00 | 48 | 1018.8 |
| 20260904051908 | 67 | 24 | 0.0 | 0.0 | 0.00 | 0.00 | 0.00 | 47 | 1018.8 |
| 20260904051524 | 67 | 257 | 0.0 | 2.0 | 0.00 | 0.00 | 0.00 | 46 | 1019.5 |
| 20260904051403 | 67 | 262 | 0.0 | 2.0 | 0.00 | 0.00 | 0.00 | 47 | 1018.8 |
| 20260904050856 | 67 | 264 | 0.0 | 2.0 | 0.00 | 0.00 | 0.00 | 45 | 1018.8 |
| 20260904050350 | 68 | 328 | 0.0 | 1.0 | 0.00 | 0.00 | 0.00 | 45 | 1018.8 |
| 20260904050014 | 68 | 272 | 0.0 | 0.0 | 0.00 | 0.00 | 0.00 | 44 | 1019.5 |
| 20260904045845 | 69 | 276 | 0.0 | 1.0 | 0.00 | 0.00 | 0.00 | 44 | 1018.8 |
| 20260904045338 | 69 | 276 | 0.0 | 2.0 | 0.00 | 0.00 | 0.00 | 43 | 1018.8 |
| 20260904044832 | 69 | 281 | 0.0 | 2.0 | 0.00 | 0.00 | 0.00 | 43 | 1018.8 |
| 20260904044519 | 69 | 267 | 0.0 | 2.0 | 0.00 | 0.00 | 0.00 | 42 | 1019.7 |
| 20260904044326 | 69 | 262 | 0.0 | 2.0 | 0.00 | 0.00 | 0.00 | 43 | 1019.0 |
| 20260904043821 | 69 | 294 | 0.0 | 1.0 | 0.00 | 0.00 | 0.00 | 43 | 1018.8 |
| 20260904043315 | 68 | 319 | 0.0 | 1.0 | 0.00 | 0.00 | 0.00 | 43 | 1018.8 |
| 20260904043014 | 68 | 331 | 0.0 | 1.0 | 0.00 | 0.00 | 0.00 | 42 | 1019.7 |
| 20260904042809 | 68 | 306 | 0.0 | 1.0 | 0.00 | 0.00 | 0.00 | 43 | 1019.0 |
| 20260904042306 | 69 | 304 | 0.0 | 1.0 | 0.00 | 0.00 | 0.00 | 42 | 1019.0 |
| 20260904041757 | 69 | 20 | 0.0 | 0.0 | 0.00 | 0.00 | 0.00 | 41 | 1019.1 |
| 20260904041526 | 69 | 41 | 0.0 | 0.0 | 0.00 | 0.00 | 0.00 | 40 | 1019.8 |
| 20260904041250 | 70 | 1 | 0.0 | 0.0 | 0.00 | 0.00 | 0.00 | 39 | 1019.1 |
| 20260904040744 | 70 | 20 | 0.0 | 0.0 | 0.00 | 0.00 | 0.00 | 38 | 1019.1 |
| 20260904040238 | 71 | 23 | 0.0 | 1.0 | 0.00 | 0.00 | 0.00 | 38 | 1019.1 |
| 20260904040016 | 71 | 30 | 0.0 | 1.0 | 0.00 | 0.00 | 0.00 | 37 | 1019.9 |
| 20260904035227 | 72 | 79 | 1.0 | 4.0 | 0.00 | 0.00 | 0.00 | 36 | 1019.1 |
| 20260904034720 | 73 | 68 | 2.0 | 5.0 | 0.00 | 0.00 | 0.00 | 36 | 1019.1 |
| 20260904034517 | 72 | 69 | 0.0 | 6.0 | 0.00 | 0.00 | 0.00 | 36 | 1019.8 |
| 20260904034214 | 73 | 73 | 2.0 | 5.0 | 0.00 | 0.00 | 0.00 | 36 | 1019.1 |
| 20260904033708 | 73 | 115 | 2.0 | 5.0 | 0.00 | 0.00 | 0.00 | 35 | 1019.1 |
| 20260904033017 | 72 | 135 | 1.0 | 9.0 | 0.00 | 0.00 | 0.00 | 33 | 1019.8 |
| 20260904032656 | 73 | 109 | 0.0 | 8.0 | 0.00 | 0.00 | 0.00 | 31 | 1018.8 |
| 20260904032150 | 73 | 107 | 0.0 | 3.0 | 0.00 | 0.00 | 0.00 | 30 | 1018.7 |
| 20260904031645 | 73 | 106 | 0.0 | 3.0 | 0.00 | 0.00 | 0.00 | 29 | 1018.7 |
| 20260904031519 | 73 | 111 | 1.0 | 3.0 | 0.00 | 0.00 | 0.00 | 28 | 1019.6 |
| 20260904031138 | 73 | 94 | 0.0 | 3.0 | 0.00 | 0.00 | 0.00 | 28 | 1018.6 |
| 20260904030639 | 73 | 96 | 0.0 | 3.0 | 0.00 | 0.00 | 0.00 | 28 | 1018.6 |
| 20260904030020 | 73 | 134 | 0.0 | 2.0 | 0.00 | 0.00 | 0.00 | 27 | 1019.4 |
| 20260904025639 | 73 | 100 | 0.0 | 1.0 | 0.00 | 0.00 | 0.00 | 27 | 1018.6 |
| 20260904025136 | 74 | 89 | 0.0 | 1.0 | 0.00 | 0.00 | 0.00 | 27 | 1018.5 |
| 20260904024634 | 74 | 91 | 0.0 | 1.0 | 0.00 | 0.00 | 0.00 | 27 | 1018.5 |
| 20260904024515 | 74 | 94 | 0.0 | 1.0 | 0.00 | 0.00 | 0.00 | 26 | 1019.0 |
| 20260904023633 | 74 | 85 | 0.0 | 2.0 | 0.00 | 0.00 | 0.00 | 27 | 1018.4 |
| 20260904023132 | 74 | 89 | 0.0 | 3.0 | 0.00 | 0.00 | 0.00 | 27 | 1018.2 |
| 20260904023020 | 73 | 89 | 0.0 | 3.0 | 0.00 | 0.00 | 0.00 | 27 | 1018.9 |
| 20260904022628 | 74 | 79 | 0.0 | 4.0 | 0.00 | 0.00 | 0.00 | 28 | 1018.2 |
| 20260904022128 | 74 | 89 | 1.0 | 4.0 | 0.00 | 0.00 | 0.00 | 27 | 1018.0 |
| 20260904021626 | 74 | 98 | 1.0 | 3.0 | 0.00 | 0.00 | 0.00 | 28 | 1018.1 |
| 20260904021520 | 74 | 121 | 1.0 | 6.0 | 0.00 | 0.00 | 0.00 | 27 | 1018.7 |
| 20260904021126 | 75 | 139 | 1.0 | 5.0 | 0.00 | 0.00 | 0.00 | 28 | 1018.0 |
| 20260904020625 | 75 | 111 | 1.0 | 5.0 | 0.00 | 0.00 | 0.00 | 27 | 1018.0 |
| 20260904020125 | 76 | 103 | 0.0 | 3.0 | 0.00 | 0.00 | 0.00 | 27 | 1018.0 |
| 20260904020033 | 76 | 70 | 0.0 | 2.0 | 0.00 | 0.00 | 0.00 | 26 | 1018.5 |
| 20260904015623 | 76 | 116 | 0.0 | 2.0 | 0.00 | 0.00 | 0.00 | 26 | 1017.9 |
| 20260904015121 | 77 | 106 | 0.0 | 1.0 | 0.00 | 0.00 | 0.00 | 26 | 1017.7 |
| 20260904014523 | 77 | 127 | 0.0 | 3.0 | 0.00 | 0.00 | 0.00 | 25 | 1018.5 |
| 20260904014119 | 78 | 124 | 1.0 | 4.0 | 0.00 | 0.00 | 0.00 | 25 | 1017.9 |
| 20260904013618 | 78 | 108 | 2.0 | 5.0 | 0.00 | 0.00 | 0.00 | 24 | 1017.6 |
| 20260904013113 | 78 | 113 | 2.0 | 5.0 | 0.00 | 0.00 | 0.00 | 24 | 1017.6 |
| 20260904013020 | 78 | 96 | 2.0 | 6.0 | 0.00 | 0.00 | 0.00 | 24 | 1018.3 |
| 20260904012613 | 79 | 140 | 1.0 | 6.0 | 0.00 | 0.00 | 0.00 | 24 | 1017.6 |
| 20260904012115 | 79 | 79 | 1.0 | 6.0 | 0.00 | 0.00 | 0.00 | 24 | 1017.7 |
| 20260904011614 | 79 | 131 | 2.0 | 7.0 | 0.00 | 0.00 | 0.00 | 24 | 1017.6 |
| 20260904011528 | 79 | 168 | 1.0 | 10.0 | 0.00 | 0.00 | 0.00 | 23 | 1018.3 |
| 20260904011114 | 80 | 129 | 3.0 | 9.0 | 0.00 | 0.00 | 0.00 | 23 | 1017.6 |
| 20260904010613 | 80 | 151 | 3.0 | 9.0 | 0.00 | 0.00 | 0.00 | 23 | 1017.6 |
| 20260904010114 | 80 | 110 | 3.0 | 9.0 | 0.00 | 0.00 | 0.00 | 23 | 1017.6 |
| 20260904010025 | 80 | 133 | 3.0 | 10.0 | 0.00 | 0.00 | 0.00 | 22 | 1018.2 |
| 20260904005614 | 80 | 108 | 4.0 | 12.0 | 0.00 | 0.00 | 0.00 | 23 | 1017.6 |
| 20260904005113 | 81 | 144 | 5.0 | 14.0 | 0.00 | 0.00 | 0.00 | 22 | 1017.5 |
| 20260904004614 | 81 | 143 | 5.0 | 10.0 | 0.00 | 0.00 | 0.00 | 22 | 1017.7 |
| 20260904004527 | 80 | 130 | 4.0 | 12.0 | 0.00 | 0.00 | 0.00 | 21 | 1018.3 |
| 20260904004109 | 81 | 134 | 5.0 | 12.0 | 0.00 | 0.00 | 0.00 | 21 | 1017.6 |
| 20260904003611 | 81 | 131 | 5.0 | 12.0 | 0.00 | 0.00 | 0.00 | 22 | 1017.6 |
| 20260904003110 | 81 | 110 | 4.0 | 15.0 | 0.00 | 0.00 | 0.00 | 21 | 1017.5 |
| 20260904003028 | 81 | 126 | 4.0 | 16.0 | 0.00 | 0.00 | 0.00 | 21 | 1018.2 |
| 20260904002611 | 81 | 112 | 4.0 | 15.0 | 0.00 | 0.00 | 0.00 | 22 | 1017.6 |
| 20260904002109 | 81 | 127 | 4.0 | 9.0 | 0.00 | 0.00 | 0.00 | 22 | 1017.6 |
| 20260904001610 | 82 | 77 | 4.0 | 11.0 | 0.00 | 0.00 | 0.00 | 22 | 1017.6 |
| 20260904001523 | 81 | 109 | 3.0 | 12.0 | 0.00 | 0.00 | 0.00 | 21 | 1018.3 |
| 20260904001110 | 82 | 163 | 4.0 | 11.0 | 0.00 | 0.00 | 0.00 | 21 | 1017.6 |
| 20260904000609 | 82 | 174 | 4.0 | 9.0 | 0.00 | 0.00 | 0.00 | 21 | 1017.5 |
| 20260904000110 | 83 | 134 | 4.0 | 13.0 | 0.00 | 0.00 | 0.00 | 21 | 1017.6 |
| 20260904000006 | 82 | 105 | 5.0 | 15.0 | 0.00 | 0.00 | 0.00 | 20 | 1018.2 |
| 20260903235609 | 83 | 98 | 5.0 | 14.0 | 0.00 | 0.00 | 0.00 | 19 | 1017.6 |
| 20260903235110 | 83 | 136 | 6.0 | 14.0 | 0.00 | 0.00 | 0.00 | 20 | 1017.6 |
| 20260903234512 | 83 | 110 | 7.0 | 12.0 | 0.00 | 0.00 | 0.00 | 20 | 1018.3 |
| 20260903234110 | 84 | 164 | 3.0 | 12.0 | 0.00 | 0.00 | 0.00 | 20 | 1017.6 |
| 20260903233111 | 84 | 178 | 4.0 | 15.0 | 0.00 | 0.00 | 0.00 | 20 | 1017.6 |
| 20260903233014 | 84 | 187 | 4.0 | 17.0 | 0.00 | 0.00 | 0.00 | 20 | 1018.1 |
| 20260903232110 | 84 | 152 | 4.0 | 15.0 | 0.00 | 0.00 | 0.00 | 20 | 1017.6 |
| 20260903231609 | 84 | 215 | 4.0 | 11.0 | 0.00 | 0.00 | 0.00 | 19 | 1017.6 |
| 20260903231524 | 83 | 136 | 2.0 | 11.0 | 0.00 | 0.00 | 0.00 | 18 | 1018.2 |
| 20260903230609 | 84 | 113 | 5.0 | 12.0 | 0.00 | 0.00 | 0.00 | 20 | 1017.6 |
| 20260903230109 | 84 | 148 | 5.0 | 17.0 | 0.00 | 0.00 | 0.00 | 21 | 1017.6 |
| 20260903230036 | 83 | 109 | 6.0 | 19.0 | 0.00 | 0.00 | 0.00 | 19 | 1018.2 |
| 20260903225609 | 84 | 135 | 5.0 | 17.0 | 0.00 | 0.00 | 0.00 | 20 | 1017.5 |
| 20260903225109 | 84 | 149 | 4.0 | 12.0 | 0.00 | 0.00 | 0.00 | 20 | 1017.6 |
| 20260903224609 | 84 | 190 | 5.0 | 14.0 | 0.00 | 0.00 | 0.00 | 19 | 1017.6 |
| 20260903224507 | 84 | 207 | 4.0 | 17.0 | 0.00 | 0.00 | 0.00 | 19 | 1018.2 |
| 20260903224110 | 84 | 147 | 4.0 | 14.0 | 0.00 | 0.00 | 0.00 | 20 | 1017.5 |
| 20260903223608 | 84 | 118 | 5.0 | 12.0 | 0.00 | 0.00 | 0.00 | 19 | 1017.6 |
| 20260903223109 | 85 | 133 | 5.0 | 12.0 | 0.00 | 0.00 | 0.00 | 18 | 1017.5 |
| 20260903223017 | 85 | 130 | 7.0 | 13.0 | 0.00 | 0.00 | 0.00 | 18 | 1018.3 |
| 20260903222603 | 86 | 162 | 4.0 | 10.0 | 0.00 | 0.00 | 0.00 | 18 | 1017.6 |
| 20260903222057 | 86 | 27 | 4.0 | 18.0 | 0.00 | 0.00 | 0.00 | 19 | 1017.6 |
| 20260903221552 | 85 | 205 | 2.0 | 18.0 | 0.00 | 0.00 | 0.00 | 20 | 1017.5 |
| 20260903221526 | 85 | 178 | 1.0 | 16.0 | 0.00 | 0.00 | 0.00 | 18 | 1018.1 |
| 20260903221045 | 85 | 172 | 3.0 | 15.0 | 0.00 | 0.00 | 0.00 | 19 | 1017.5 |
| 20260903220540 | 85 | 120 | 4.0 | 15.0 | 0.00 | 0.00 | 0.00 | 20 | 1017.6 |
| 20260903220045 | 85 | 137 | 3.0 | 10.0 | 0.00 | 0.00 | 0.00 | 19 | 1018.5 |
| 20260903220033 | 85 | 72 | 3.0 | 8.0 | 0.00 | 0.00 | 0.00 | 21 | 1017.7 |
| 20260903215527 | 85 | 135 | 2.0 | 6.0 | 0.00 | 0.00 | 0.00 | 21 | 1017.7 |
| 20260903214529 | 85 | 105 | 5.0 | 10.0 | 0.00 | 0.00 | 0.00 | 19 | 1018.5 |
| 20260903214515 | 85 | 86 | 3.0 | 9.0 | 0.00 | 0.00 | 0.00 | 19 | 1018.0 |
| 20260903214009 | 86 | 155 | 3.0 | 9.0 | 0.00 | 0.00 | 0.00 | 20 | 1017.9 |
| 20260903213510 | 86 | 114 | 4.0 | 13.0 | 0.00 | 0.00 | 0.00 | 20 | 1018.0 |
| 20260903213007 | 86 | 188 | 4.0 | 13.0 | 0.00 | 0.00 | 0.00 | 19 | 1018.6 |
| 20260903212506 | 85 | 245 | 2.0 | 4.0 | 0.00 | 0.00 | 0.00 | 19 | 1018.0 |
| 20260903212007 | 85 | 184 | 2.0 | 7.0 | 0.00 | 0.00 | 0.00 | 19 | 1018.1 |
| 20260903211513 | 84 | 147 | 4.0 | 10.0 | 0.00 | 0.00 | 0.00 | 20 | 1018.7 |
| 20260903211508 | 85 | 148 | 3.0 | 8.0 | 0.00 | 0.00 | 0.00 | 20 | 1018.2 |
| 20260903210502 | 85 | 115 | 4.0 | 11.0 | 0.00 | 0.00 | 0.00 | 20 | 1018.2 |
| 20260903210018 | 85 | 123 | 4.0 | 12.0 | 0.00 | 0.00 | 0.00 | 19 | 1018.9 |
| 20260903210000 | 85 | 121 | 5.0 | 11.0 | 0.00 | 0.00 | 0.00 | 19 | 1018.4 |
| 20260903205500 | 85 | 89 | 4.0 | 11.0 | 0.00 | 0.00 | 0.00 | 20 | 1018.4 |
| 20260903205001 | 85 | 129 | 4.0 | 11.0 | 0.00 | 0.00 | 0.00 | 20 | 1018.4 |
| 20260903204527 | 85 | 134 | 4.0 | 9.0 | 0.00 | 0.00 | 0.00 | 19 | 1019.1 |
| 20260903204002 | 85 | 319 | 3.0 | 9.0 | 0.00 | 0.00 | 0.00 | 19 | 1018.5 |
| 20260903203500 | 85 | 145 | 4.0 | 9.0 | 0.00 | 0.00 | 0.00 | 20 | 1018.6 |
| 20260903203031 | 84 | 148 | 4.0 | 7.0 | 0.00 | 0.00 | 0.00 | 20 | 1019.2 |
| 20260903203002 | 85 | 146 | 3.0 | 6.0 | 0.00 | 0.00 | 0.00 | 21 | 1018.7 |
| 20260903202501 | 85 | 93 | 2.0 | 7.0 | 0.00 | 0.00 | 0.00 | 22 | 1018.6 |
| 20260903201515 | 84 | 186 | 3.0 | 10.0 | 0.00 | 0.00 | 0.00 | 20 | 1019.4 |
| 20260903201454 | 85 | 186 | 2.0 | 9.0 | 0.00 | 0.00 | 0.00 | 20 | 1018.7 |
| 20260903200949 | 84 | 112 | 2.0 | 6.0 | 0.00 | 0.00 | 0.00 | 21 | 1018.7 |
| 20260903200443 | 84 | 38 | 3.0 | 6.0 | 0.00 | 0.00 | 0.00 | 22 | 1018.8 |
| 20260903200034 | 84 | 127 | 2.0 | 7.0 | 0.00 | 0.00 | 0.00 | 21 | 1019.6 |
| 20260903195430 | 84 | 121 | 3.0 | 6.0 | 0.00 | 0.00 | 0.00 | 22 | 1019.0 |
| 20260903194924 | 85 | 342 | 3.0 | 8.0 | 0.00 | 0.00 | 0.00 | 21 | 1019.1 |
| 20260903194535 | 85 | 132 | 4.0 | 9.0 | 0.00 | 0.00 | 0.00 | 20 | 1019.8 |
| 20260903194419 | 85 | 108 | 2.0 | 8.0 | 0.00 | 0.00 | 0.00 | 20 | 1019.2 |
| 20260903193912 | 85 | 203 | 1.0 | 6.0 | 0.00 | 0.00 | 0.00 | 20 | 1019.1 |
| 20260903193030 | 84 | 301 | 0.0 | 5.0 | 0.00 | 0.00 | 0.00 | 22 | 1019.8 |
| 20260903192901 | 84 | 303 | 1.0 | 5.0 | 0.00 | 0.00 | 0.00 | 22 | 1019.3 |
| 20260903192355 | 84 | 339 | 1.0 | 3.0 | 0.00 | 0.00 | 0.00 | 21 | 1019.3 |
| 20260903191848 | 84 | 98 | 2.0 | 7.0 | 0.00 | 0.00 | 0.00 | 22 | 1019.5 |
| 20260903191535 | 83 | 96 | 0.0 | 9.0 | 0.00 | 0.00 | 0.00 | 23 | 1020.1 |
| 20260903191343 | 83 | 104 | 4.0 | 8.0 | 0.00 | 0.00 | 0.00 | 21 | 1019.5 |
| 20260903190838 | 82 | 102 | 3.0 | 8.0 | 0.00 | 0.00 | 0.00 | 21 | 1019.6 |
| 20260903190330 | 83 | 103 | 2.0 | 6.0 | 0.00 | 0.00 | 0.00 | 22 | 1019.5 |
| 20260903190011 | 83 | 50 | 1.0 | 7.0 | 0.00 | 0.00 | 0.00 | 20 | 1020.3 |
| 20260903185824 | 84 | 44 | 2.0 | 6.0 | 0.00 | 0.00 | 0.00 | 21 | 1019.7 |
| 20260903185320 | 84 | 90 | 2.0 | 6.0 | 0.00 | 0.00 | 0.00 | 20 | 1019.7 |
| 20260903184812 | 84 | 163 | 3.0 | 7.0 | 0.00 | 0.00 | 0.00 | 21 | 1019.8 |
| 20260903184518 | 83 | 119 | 2.0 | 10.0 | 0.00 | 0.00 | 0.00 | 19 | 1020.4 |
| 20260903184307 | 83 | 147 | 2.0 | 8.0 | 0.00 | 0.00 | 0.00 | 20 | 1019.8 |
| 20260903183800 | 83 | 75 | 1.0 | 8.0 | 0.00 | 0.00 | 0.00 | 20 | 1019.9 |
| 20260903183038 | 83 | 278 | 1.0 | 8.0 | 0.00 | 0.00 | 0.00 | 19 | 1020.7 |
| 20260903182748 | 83 | 48 | 3.0 | 8.0 | 0.00 | 0.00 | 0.00 | 22 | 1020.1 |
| 20260903182243 | 84 | 75 | 3.0 | 8.0 | 0.00 | 0.00 | 0.00 | 20 | 1020.2 |
| 20260903181530 | 82 | 124 | 1.0 | 7.0 | 0.00 | 0.00 | 0.00 | 22 | 1020.8 |
| 20260903180724 | 82 | 110 | 2.0 | 6.0 | 0.00 | 0.00 | 0.00 | 21 | 1020.3 |
| 20260903180219 | 82 | 71 | 2.0 | 6.0 | 0.00 | 0.00 | 0.00 | 22 | 1020.3 |
| 20260903180038 | 81 | 76 | 1.0 | 7.0 | 0.00 | 0.00 | 0.00 | 21 | 1021.0 |
| 20260903175713 | 82 | 79 | 3.0 | 8.0 | 0.00 | 0.00 | 0.00 | 23 | 1020.3 |
| 20260903175207 | 83 | 63 | 3.0 | 8.0 | 0.00 | 0.00 | 0.00 | 21 | 1020.4 |
| 20260903174700 | 82 | 200 | 3.0 | 8.0 | 0.00 | 0.00 | 0.00 | 23 | 1020.4 |
| 20260903174521 | 82 | 125 | 2.0 | 9.0 | 0.00 | 0.00 | 0.00 | 24 | 1021.1 |
| 20260903173648 | 82 | 68 | 3.0 | 7.0 | 0.00 | 0.00 | 0.00 | 22 | 1020.4 |
| 20260903173143 | 82 | 97 | 3.0 | 7.0 | 0.00 | 0.00 | 0.00 | 22 | 1020.6 |
| 20260903173023 | 81 | 119 | 3.0 | 8.0 | 0.00 | 0.00 | 0.00 | 24 | 1021.0 |
| 20260903172638 | 81 | 98 | 3.0 | 6.0 | 0.00 | 0.00 | 0.00 | 24 | 1020.4 |
| 20260903172131 | 82 | 188 | 3.0 | 7.0 | 0.00 | 0.00 | 0.00 | 22 | 1020.4 |
| 20260903171624 | 82 | 97 | 2.0 | 7.0 | 0.00 | 0.00 | 0.00 | 23 | 1020.4 |
| 20260903171529 | 82 | 117 | 2.0 | 6.0 | 0.00 | 0.00 | 0.00 | 22 | 1021.1 |
| 20260903170612 | 82 | 177 | 3.0 | 6.0 | 0.00 | 0.00 | 0.00 | 24 | 1020.6 |
| 20260903170106 | 82 | 148 | 2.0 | 5.0 | 0.00 | 0.00 | 0.00 | 24 | 1020.6 |
| 20260903170029 | 82 | 130 | 2.0 | 6.0 | 0.00 | 0.00 | 0.00 | 22 | 1021.2 |
| 20260903165559 | 81 | 181 | 1.0 | 5.0 | 0.00 | 0.00 | 0.00 | 25 | 1020.6 |
| 20260903165058 | 80 | 150 | 2.0 | 5.0 | 0.00 | 0.00 | 0.00 | 25 | 1020.6 |
| 20260903164548 | 80 | 123 | 3.0 | 6.0 | 0.00 | 0.00 | 0.00 | 24 | 1020.4 |
| 20260903164513 | 79 | 92 | 2.0 | 8.0 | 0.00 | 0.00 | 0.00 | 23 | 1021.4 |
| 20260903164042 | 79 | 103 | 3.0 | 7.0 | 0.00 | 0.00 | 0.00 | 25 | 1020.4 |
| 20260903163535 | 80 | 97 | 2.0 | 7.0 | 0.00 | 0.00 | 0.00 | 26 | 1020.6 |
| 20260903163031 | 79 | 124 | 2.0 | 7.0 | 0.00 | 0.00 | 0.00 | 26 | 1020.6 |
| 20260903163020 | 79 | 128 | 1.0 | 8.0 | 0.00 | 0.00 | 0.00 | 25 | 1021.3 |
| 20260903162525 | 79 | 72 | 3.0 | 7.0 | 0.00 | 0.00 | 0.00 | 26 | 1020.6 |
| 20260903161532 | 78 | 65 | 1.0 | 6.0 | 0.00 | 0.00 | 0.00 | 27 | 1021.3 |
| 20260903161512 | 78 | 60 | 2.0 | 5.0 | 0.00 | 0.00 | 0.00 | 27 | 1020.6 |
| 20260903161006 | 78 | 0 | 3.0 | 7.0 | 0.00 | 0.00 | 0.00 | 26 | 1020.4 |
| 20260903160502 | 79 | 99 | 3.0 | 7.0 | 0.00 | 0.00 | 0.00 | 27 | 1020.4 |
| 20260903160030 | 79 | 30 | 2.0 | 6.0 | 0.00 | 0.00 | 0.00 | 25 | 1021.2 |
| 20260903155955 | 79 | 52 | 2.0 | 5.0 | 0.00 | 0.00 | 0.00 | 26 | 1020.4 |
| 20260903155448 | 79 | 123 | 1.0 | 5.0 | 0.00 | 0.00 | 0.00 | 27 | 1020.4 |
| 20260903154942 | 79 | 163 | 1.0 | 5.0 | 0.00 | 0.00 | 0.00 | 26 | 1020.6 |
| 20260903154534 | 78 | 93 | 2.0 | 6.0 | 0.00 | 0.00 | 0.00 | 26 | 1021.3 |
| 20260903154439 | 78 | 85 | 2.0 | 5.0 | 0.00 | 0.00 | 0.00 | 26 | 1020.6 |
| 20260903153931 | 78 | 65 | 2.0 | 5.0 | 0.00 | 0.00 | 0.00 | 27 | 1020.7 |
| 20260903153424 | 79 | 96 | 1.0 | 5.0 | 0.00 | 0.00 | 0.00 | 26 | 1020.7 |
| 20260903153018 | 78 | 323 | 0.0 | 2.0 | 0.00 | 0.00 | 0.00 | 25 | 1021.2 |
| 20260903152412 | 78 | 293 | 1.0 | 3.0 | 0.00 | 0.00 | 0.00 | 26 | 1020.6 |
| 20260903151907 | 78 | 101 | 1.0 | 3.0 | 0.00 | 0.00 | 0.00 | 28 | 1020.6 |
| 20260903151523 | 77 | 144 | 1.0 | 4.0 | 0.00 | 0.00 | 0.00 | 29 | 1021.1 |
| 20260903151400 | 78 | 142 | 1.0 | 3.0 | 0.00 | 0.00 | 0.00 | 29 | 1020.7 |
| 20260903150855 | 78 | 86 | 1.0 | 3.0 | 0.00 | 0.00 | 0.00 | 28 | 1020.7 |
| 20260903150348 | 77 | 115 | 1.0 | 2.0 | 0.00 | 0.00 | 0.00 | 29 | 1020.7 |
| 20260903150004 | 76 | 116 | 0.0 | 4.0 | 0.00 | 0.00 | 0.00 | 29 | 1021.1 |
| 20260903145841 | 77 | 120 | 1.0 | 3.0 | 0.00 | 0.00 | 0.00 | 30 | 1020.7 |
| 20260903145335 | 76 | 146 | 0.0 | 3.0 | 0.00 | 0.00 | 0.00 | 32 | 1020.7 |
| 20260903144830 | 76 | 143 | 0.0 | 2.0 | 0.00 | 0.00 | 0.00 | 31 | 1020.7 |
| 20260903144510 | 74 | 122 | 0.0 | 2.0 | 0.00 | 0.00 | 0.00 | 33 | 1021.1 |
| 20260903144325 | 74 | 120 | 0.0 | 2.0 | 0.00 | 0.00 | 0.00 | 32 | 1020.7 |
| 20260903143818 | 74 | 116 | 0.0 | 2.0 | 0.00 | 0.00 | 0.00 | 31 | 1020.7 |
| 20260903143312 | 73 | 116 | 0.0 | 2.0 | 0.00 | 0.00 | 0.00 | 35 | 1020.7 |
| 20260903143015 | 72 | 129 | 0.0 | 2.0 | 0.00 | 0.00 | 0.00 | 34 | 1021.3 |
| 20260903142806 | 73 | 127 | 0.0 | 2.0 | 0.00 | 0.00 | 0.00 | 36 | 1020.7 |
| 20260903142306 | 72 | 119 | 0.0 | 2.0 | 0.00 | 0.00 | 0.00 | 39 | 1020.7 |
| 20260903141755 | 71 | 119 | 0.0 | 2.0 | 0.00 | 0.00 | 0.00 | 39 | 1020.6 |
| 20260903141522 | 71 | 126 | 0.0 | 2.0 | 0.00 | 0.00 | 0.00 | 39 | 1021.4 |
| 20260903141249 | 71 | 129 | 0.0 | 2.0 | 0.00 | 0.00 | 0.00 | 39 | 1020.7 |
| 20260903140743 | 71 | 132 | 0.0 | 2.0 | 0.00 | 0.00 | 0.00 | 41 | 1020.7 |
| 20260903140238 | 70 | 195 | 0.0 | 0.0 | 0.00 | 0.00 | 0.00 | 46 | 1020.6 |
| 20260903140025 | 70 | 199 | 0.0 | 0.0 | 0.00 | 0.00 | 0.00 | 43 | 1021.1 |
| 20260903135731 | 69 | 203 | 1.0 | 5.0 | 0.00 | 0.00 | 0.00 | 44 | 1020.6 |
| 20260903135224 | 69 | 203 | 1.0 | 5.0 | 0.00 | 0.00 | 0.00 | 42 | 1020.6 |
| 20260903134507 | 68 | 192 | 1.0 | 8.0 | 0.00 | 0.00 | 0.00 | 43 | 1021.0 |
| 20260903133706 | 67 | 359 | 0.0 | 2.0 | 0.00 | 0.00 | 0.00 | 49 | 1020.1 |
| 20260903133200 | 66 | 354 | 0.0 | 2.0 | 0.00 | 0.00 | 0.00 | 47 | 1020.1 |
| 20260903133017 | 65 | 344 | 0.0 | 1.0 | 0.00 | 0.00 | 0.00 | 44 | 1020.6 |
| 20260903132654 | 65 | 351 | 0.0 | 1.0 | 0.00 | 0.00 | 0.00 | 45 | 1019.9 |
| 20260903132148 | 64 | 317 | 0.0 | 0.0 | 0.00 | 0.00 | 0.00 | 48 | 1019.9 |
| 20260903131643 | 63 | 317 | 0.0 | 2.0 | 0.00 | 0.00 | 0.00 | 51 | 1019.8 |
| 20260903131522 | 62 | 309 | 0.0 | 2.0 | 0.00 | 0.00 | 0.00 | 47 | 1020.4 |
| 20260903131141 | 62 | 311 | 0.0 | 2.0 | 0.00 | 0.00 | 0.00 | 44 | 1019.9 |
| 20260903130137 | 62 | 334 | 0.0 | 3.0 | 0.00 | 0.00 | 0.00 | 44 | 1019.7 |
| 20260903130023 | 61 | 328 | 0.0 | 3.0 | 0.00 | 0.00 | 0.00 | 44 | 1020.2 |
| 20260903125633 | 62 | 334 | 0.0 | 3.0 | 0.00 | 0.00 | 0.00 | 43 | 1019.7 |
| 20260903125134 | 62 | 338 | 0.0 | 1.0 | 0.00 | 0.00 | 0.00 | 44 | 1019.6 |
| 20260903124630 | 62 | 338 | 0.0 | 1.0 | 0.00 | 0.00 | 0.00 | 42 | 1019.6 |
| 20260903124548 | 61 | 332 | 0.0 | 2.0 | 0.00 | 0.00 | 0.00 | 42 | 1020.1 |
| 20260903124130 | 62 | 338 | 0.0 | 2.0 | 0.00 | 0.00 | 0.00 | 45 | 1019.5 |
| 20260903123626 | 62 | 338 | 0.0 | 2.0 | 0.00 | 0.00 | 0.00 | 41 | 1019.6 |
| 20260903123126 | 63 | 330 | 0.0 | 1.0 | 0.00 | 0.00 | 0.00 | 41 | 1019.5 |
| 20260903123008 | 62 | 325 | 0.0 | 1.0 | 0.00 | 0.00 | 0.00 | 40 | 1020.0 |
| 20260903122626 | 63 | 333 | 0.0 | 3.0 | 0.00 | 0.00 | 0.00 | 40 | 1019.3 |
| 20260903121533 | 62 | 330 | 1.0 | 5.0 | 0.00 | 0.00 | 0.00 | 40 | 1019.8 |
| 20260903121127 | 61 | 330 | 0.0 | 3.0 | 0.00 | 0.00 | 0.00 | 42 | 1019.2 |
| 20260903120623 | 61 | 338 | 0.0 | 2.0 | 0.00 | 0.00 | 0.00 | 43 | 1019.2 |
| 20260903120120 | 60 | 353 | 0.0 | 3.0 | 0.00 | 0.00 | 0.00 | 43 | 1019.2 |
| 20260903120021 | 60 | 333 | 0.0 | 3.0 | 0.00 | 0.00 | 0.00 | 43 | 1019.7 |
| 20260903115622 | 60 | 341 | 0.0 | 3.0 | 0.00 | 0.00 | 0.00 | 44 | 1019.1 |
| 20260903115120 | 60 | 353 | 0.0 | 0.0 | 0.00 | 0.00 | 0.00 | 44 | 1019.1 |
| 20260903114617 | 60 | 353 | 0.0 | 4.0 | 0.00 | 0.00 | 0.00 | 45 | 1018.8 |
| 20260903114528 | 60 | 346 | 0.0 | 4.0 | 0.00 | 0.00 | 0.00 | 45 | 1019.5 |
| 20260903114117 | 60 | 353 | 0.0 | 4.0 | 0.00 | 0.00 | 0.00 | 43 | 1019.0 |
| 20260903113615 | 60 | 352 | 0.0 | 2.0 | 0.00 | 0.00 | 0.00 | 44 | 1019.0 |
| 20260903113117 | 61 | 352 | 0.0 | 2.0 | 0.00 | 0.00 | 0.00 | 44 | 1019.1 |
| 20260903113032 | 61 | 346 | 0.0 | 2.0 | 0.00 | 0.00 | 0.00 | 43 | 1019.7 |
| 20260903112618 | 62 | 334 | 0.0 | 3.0 | 0.00 | 0.00 | 0.00 | 42 | 1019.1 |